STARLINK-34497, 64696

Orbit data source: Space-Track

STARLINK-34497, 64696 is a payload satellite owned by SpaceX/Seattle (US) in LEO that was launched on Sat, 28 Jun 2025 UTC via an FALCON 9 launch vehicle from the Air Force Western Test Range (AFWTR). Payload-class satellites include a variety of spacecraft equipped with specific instruments for various scientific and technological missions. These include communications satellites like Starlink; space stations such as the ISS; scientific satellites like the Hubble; Earth observation satellites from companies like Planet Labs, Umbra, and HawkEye 360; GPS; miniature CubeSats for education and research; and military/defense satellites.

Loading next visibility...
Identifier
64696, 2025-142A
Orbit
LEO
Country
Flag of USUS
Related business
Manufacturer
SpaceX/Seattle
Mission
Operational Commercial Communications
Bus & Motor
STARLINK V2MO, Unknown motor
Mass
575 kg wet, ~530 kg dry
Launch date (UTC)
2025-06-28 (2 months ago)
Launch vehicle
FALCON 9
Launch site
Air Force Western Test Range (AFWTR)
Object type
Payload
Rocket body
Debris
Shape & HBR
Box + 1 Pan, 14.5 m
Radar Cross Section
41.120 m², Large (>1 m²)

Expand to show TLE details & history
Last TLE update: 1 day ago

TLE from 1 day ago
0 STARLINK-34497
1 64696U 25142A   25241.96345202  .00058164  00000-0  13191-2 0  9991
2 64696  70.0003  80.2035 0003499 269.1077  90.9704 15.42766689 10866
Epoch: 2025-08-29T23:07Z
TLE epoch observation values (Epoch: 2025-08-29T23:07:22.254Z)
Latitude
-0.00003°
Longitude
114.9562°
Altitude
440.461 km
Speed
7.648 km/s
True Right ascension
05h 20m 48s
True Declination
0° 00' 00"
Sunlit
Object was in daylight at epoch
Visualization orbit readout
Latitude
Unknown
Longitude
Unknown
Altitude
Unknown
Speed
Unknown
Apparent Right ascension
Unknown
Apparent Declination
Unknown
Sunlit
N/A
Visualization observer readout
Local Sidereal Time
16:46:23
Azimuth
Unknown
Elevation
Unknown
Doppler factor
Unknown
Orbital elements
Apogee altitude
438.24 km
Perigee altitude
433.472 km
Semi-major axis
6,813.993 km
Eccentricity
0.00035
Inclination
70.0003°
RAAN
80.2035°
Arg. of periapsis
269.1077°
True anomaly
91.01049°
Mean anomaly
90.9704°
Eccentric anomaly
90.99044°
Mean motion
3.8587 °/min
Orbital period
93.3 mins
BSTAR
0.0013191
Loading maneuver chart data...
Computing Atmospheric mass density...
Loading historical data...
Loading historical data...
Loading historical data...
Loading historical data...
Loading historical data...
Loading historical data...
Loading historical data...

Documentation

Showing up to 5 results
|